Weather History for Greensboro, NC

Change the Weather History Date:

Thursday, April 11, 2013

  Actual Average Record
Temperature  
Mean Temperature 71 °F 58 °F  
Max Temperature 81 °F 69 °F 91 °F (1930)
Min Temperature 60 °F 46 °F 25 °F (1960)
Degree Days  
Heating Degree Days 0 8  
Month to date heating degree days 101 105  
Since 1 July heating degree days 3446 3430  
Cooling Degree Days 6 1  
Month to date cooling degree days 19 10  
Year to date cooling degree days 19 15  
Growing Degree Days 20 (Base 50)    
Moisture  
Dew Point 58 °F    
Average Humidity 68    
Maximum Humidity 90    
Minimum Humidity 45    
Precipitation  
Precipitation T in 0.12 in 2.69 in (1944)
Month to date precipitation 0.94 1.34  
Year to date precipitation 12.46 11.09  
Snow  
Snow 0.00 in 0.00 in T in (1950)
Month to date snowfall T 0.1  
Since 1 July snowfall 3.6 7.6  
Snow Depth 0.00 in    
Sea Level Pressure  
Sea Level Pressure 29.88 in    
Wind  
Wind Speed 12 mph (SSW)    
Max Wind Speed 22 mph    
Max Gust Speed 31 mph    
Visibility 10 miles    
Events      
T = Trace of Precipitation, MM = Missing Value Source: NWS Daily Summary

Daily Weather History Graph

Daily Weather History Graph

Search for Another Location

Airport:

Trip Planner

Search our weather history database for the weather conditions in past years. The results will help you decide how hot, cold, wet, or windy it might be!

Date:

Astronomy

Apr. 11, 2013 Rise Set
Actual Time 6:51 AM EDT 7:50 PM EDT
Civil Twilight 6:25 AM EDT 8:16 PM EDT
Nautical Twilight 5:54 AM EDT 8:47 PM EDT
Astronomical Twilight 5:22 AM EDT 9:20 PM EDT
Moon 7:24 AM EDT (4/11) 9:19 PM EDT (4/11)
Length of Visible Light 13h 51m
Length of Day
12h 58m
New Moon, 2% of the Moon is Illuminated
Apr 11
New Moon
Apr 18
First Quarter
Apr 25
Full
May 2
Last Quarter
May 9
New

Hourly Weather History & Observations

Time (EDT) Temp. Heat Index Dew Point Humidity Pressure Visibility Wind Dir Wind Speed Gust Speed Precip Events Conditions
12:54 AM 68.0 °F - 55.9 °F 65% 29.93 in 10.0 mi SSW 8.1 mph - N/A   Clear
1:54 AM 66.9 °F - 55.9 °F 68% 29.94 in 10.0 mi SSW 11.5 mph - N/A   Clear
2:54 AM 64.9 °F - 55.0 °F 70% 29.92 in 10.0 mi SSW 8.1 mph - N/A   Clear
3:54 AM 64.0 °F - 55.0 °F 73% 29.92 in 10.0 mi SSW 10.4 mph - N/A   Clear
4:54 AM 63.0 °F - 55.0 °F 75% 29.91 in 10.0 mi SSW 10.4 mph - N/A   Clear
5:54 AM 62.1 °F - 55.9 °F 80% 29.92 in 10.0 mi SW 8.1 mph - N/A   Clear
6:54 AM 60.1 °F - 55.9 °F 86% 29.94 in 10.0 mi SSW 9.2 mph - N/A   Clear
7:25 AM 60.8 °F - 57.2 °F 88% 29.98 in 10.0 mi SSW 9.2 mph - N/A   Clear
7:54 AM 61.0 °F - 57.0 °F 87% 29.96 in 10.0 mi SSW 9.2 mph - N/A   Clear
8:09 AM 62.6 °F - 57.2 °F 82% 29.98 in 10.0 mi SSW 13.8 mph - N/A   Mostly Cloudy
8:54 AM 64.0 °F - 59.0 °F 84% 29.96 in 10.0 mi SW 17.3 mph 21.9 mph N/A   Mostly Cloudy
9:54 AM 66.0 °F - 59.0 °F 78% 29.96 in 10.0 mi SW 12.7 mph - N/A   Mostly Cloudy
10:12 AM 66.2 °F - 60.8 °F 83% 29.98 in 10.0 mi SW 13.8 mph 18.4 mph N/A   Mostly Cloudy
10:54 AM 70.0 °F - 60.1 °F 71% 29.96 in 10.0 mi WSW 10.4 mph - N/A   Mostly Cloudy
11:54 AM 72.0 °F - 61.0 °F 68% 29.93 in 10.0 mi SSW 12.7 mph 16.1 mph N/A   Mostly Cloudy
12:14 PM 75.2 °F - 60.8 °F 61% 29.95 in 10.0 mi SSW 13.8 mph 20.7 mph N/A   Scattered Clouds
12:54 PM 73.4 °F - 60.8 °F 65% 29.94 in 10.0 mi South 15.0 mph 19.6 mph N/A   Mostly Cloudy
1:54 PM 77.0 °F - 59.0 °F 54% 29.88 in 10.0 mi SSW 15.0 mph - N/A   Scattered Clouds
2:54 PM 79.0 °F - 55.9 °F 45% 29.86 in 10.0 mi SSW 17.3 mph 23.0 mph N/A   Scattered Clouds
3:54 PM 81.0 °F 81.0 °F 57.0 °F 44% 29.82 in 10.0 mi WSW 13.8 mph - N/A   Scattered Clouds
4:54 PM 78.1 °F - 57.0 °F 48% 29.79 in 10.0 mi SW 12.7 mph 21.9 mph N/A   Partly Cloudy
5:54 PM 79.0 °F - 57.9 °F 48% 29.78 in 10.0 mi SSW 11.5 mph - N/A   Scattered Clouds
6:54 PM 77.0 °F - 57.0 °F 50% 29.78 in 10.0 mi South 13.8 mph 21.9 mph N/A   Mostly Cloudy
7:54 PM 75.0 °F - 57.9 °F 55% 29.78 in 10.0 mi SSW 9.2 mph - 0.00 in   Partly Cloudy
8:54 PM 73.0 °F - 57.9 °F 59% 29.76 in 10.0 mi South 8.1 mph - N/A   Mostly Cloudy
9:54 PM 73.0 °F - 59.0 °F 61% 29.75 in 10.0 mi South 12.7 mph - N/A   Mostly Cloudy
10:54 PM 72.0 °F - 62.1 °F 71% 29.75 in 10.0 mi South 11.5 mph - N/A   Scattered Clouds
11:54 PM 72.0 °F - 62.1 °F 71% 29.75 in 10.0 mi South 15.0 mph 24.2 mph N/A   Mostly Cloudy